Location: Babice Nowe
(52.2483°N, 20.8467°E)
Time: 06:03:30
(UTC+00:00)

Daily predictions for brighter satellites

Satellite Brightness Start Highest point End
(mag) Time Altitude Azimuth Time Altitude Azimuth Time Altitude Azimuth
Cosmos 2322 Rocket 2.9 18:29:59 10° NNW 18:35:26 43° NE 18:40:52 10° ESE
COSMOS 2406 3.9 18:30:35 10° SW 18:36:17 64° NW 18:42:00 10° NNE
Cosmos 2278 4.3 18:31:07 10° NW 18:36:45 60° WSW 18:42:20 10° SSE
H-2A R/B 3.9 18:36:08 10° SSW 18:40:35 31° W 18:45:00 10° NNW
ERS-1 Rocket 4.4 18:37:07 10° ESE 18:40:59 23° ENE 18:44:53 10° N
Meteor 1-4 Rocket 2.6 18:38:31 10° NNW 18:42:00 76° W 18:45:26 10° S
USA 186 3.7 18:40:27 10° SSW 18:42:12 20° W 18:43:58 10° NW
Cosmos 1862 Rocket 3.6 18:38:17 10° N 18:42:45 67° ENE 18:47:09 10° SSE
Cosmos 2360 Rocket 3.3 18:39:22 10° NNW 18:44:29 33° NE 18:49:34 10° ESE
Cosmos 841 Rocket 4.4 18:40:01 10° NNW 18:44:49 35° NE 18:49:38 10° ESE
ATLAS 3B R/B 4.0 18:41:42 10° SE 18:45:12 15° ESE 18:48:43 10° ENE
Cosmos 676 Rocket 4.1 18:41:46 10° S 18:47:01 62° ESE 18:52:18 10° NNE
SPOT 1/Viking Rocket 4.4 18:43:25 10° SE 18:48:08 35° ENE 18:52:51 10° N
USA 32 4.4 18:44:11 10° SSE 18:49:07 45° E 18:54:05 10° NNE
USA 234 3.6 18:43:17 10° E 18:49:45 66° NNE 18:56:14 10° WNW
Terra 3.6 18:49:43 10° E 18:52:58 19° NE 18:56:14 10° NNE
Cosmos 1934 Rocket 4.1 18:47:13 10° S 18:53:32 72° E 18:59:53 10° NNE
Cosmos 1980 Rocket 3.0 18:48:08 10° NW 18:53:36 50° WSW 18:59:01 10° S
Cosmos 468 Rocket 4.1 18:48:39 10° NNW 18:54:00 73° ENE 18:59:15 10° SSE
Cosmos 1238 Rocket 3.1 18:52:16 10° SSE 18:54:52 29° E 18:57:36 10° NNE
USA 276 2.8 18:52:06 10° W 18:55:07 41° SSW 18:57:49 12° SE
X-37B 2.4 18:53:36 10° WSW 18:55:57 19° S 18:58:07 11° SE
CZ-2C R/B 3.7 18:52:17 10° NNE 18:56:53 64° ESE 19:01:20 10° S
IGS 5A 4.1 18:53:19 10° SE 18:57:12 41° ENE 19:01:08 10° N
Cosmos 44 3.5 18:52:29 10° NW 18:57:20 71° NE 19:02:11 11° SE
Lacrosse 5 2.3 18:52:51 10° WNW 18:57:49 56° SW 19:02:39 11° SE
Resurs 01 Rocket 1.7 18:58:37 10° SSE 19:03:03 87° W 19:07:32 10° NNW
Cosmos 1833 Rocket 3.6 18:59:50 10° SW 19:05:21 55° NW 19:10:55 10° NNE
GP-B 3.2 19:01:28 10° N 19:05:53 59° E 19:10:15 10° SSE
Cosmos 1602 4.3 19:03:25 10° SSE 19:07:05 39° E 19:10:47 10° NNE
SPOT 3 Rocket 4.0 19:02:52 10° S 19:08:01 63° WSW 19:13:11 10° NNW
USA 238 DEB 3.6 19:02:13 10° SSW 19:08:48 68° SE 19:15:42 10° NE
USA 238 3.6 19:02:19 10° SSW 19:08:54 67° SE 19:15:48 10° NE
COSMOS 2428 4.4 19:05:48 10° NNW 19:10:23 24° NE 19:14:56 10° E
Cosmos 1867 3.7 19:05:23 10° SW 19:10:50 83° NW 19:16:21 10° NE
Cosmos 1933 Rocket 3.8 19:07:20 10° SSE 19:11:36 49° E 19:15:55 10° NNE
Cosmos 1666 Rocket 4.1 19:07:49 10° SSW 19:12:06 61° WNW 19:16:27 10° N
CENTAUR R/B 2.8 19:06:43 10° SSW 19:12:27 48° ESE 19:19:13 10° NE
Cosmos 2237 Rocket 4.4 19:11:00 10° NNW 19:14:22 16° NNE 19:17:45 10° ENE
Cosmos 1954 Rocket 4.1 19:09:51 10° SSW 19:15:12 86° WNW 19:20:34 10° NNE
Meteor 1-20 Rocket 4.3 19:09:46 10° S 19:15:34 71° E 19:21:25 10° NNE
Spot 2 Rocket 3.6 19:11:05 11° SSE 19:15:58 65° ENE 19:21:01 10° N
Cosmos 405 Rocket 2.7 19:16:13 10° S 19:19:53 60° E 19:23:37 10° NNE
Okean 1-7 3.2 19:17:23 10° N 19:21:39 56° ENE 19:25:00 16° SSE
Cosmos 1515 3.8 19:17:59 10° N 19:21:47 58° ENE 19:24:41 16° SSE
Cosmos 1741 Rocket 4.2 19:18:01 10° S 19:23:04 49° ESE 19:28:10 10° NNE
Cosmos 1763 Rocket 3.7 19:23:04 10° NNW 19:28:24 73° WSW 19:33:12 13° SSE
Cosmos 2333 Rocket 3.4 19:23:34 10° NNW 19:28:44 32° NE 19:33:20 12° ESE
Cosmos 1437 Rocket 2.6 19:25:14 10° N 19:29:03 77° ENE 19:31:55 17° SSE
Cosmos 1570 Rocket 4.1 19:25:06 10° NNW 19:30:27 72° ENE 19:34:32 17° SE
Cosmos 1703 Rocket 3.5 19:27:19 10° N 19:31:42 77° E 19:35:10 16° SSE
FALCON 9 DEB 3.2 19:29:23 10° W 19:32:54 81° N 19:36:21 10° E
H-2A R/B 3.4 19:29:19 10° NNE 19:33:27 67° ESE 19:37:34 10° S
OBJECT-B 3.3 19:32:19 10° SW 19:34:51 20° W 19:37:25 10° NW
Cosmos 2084 Rocket 3.5 19:33:15 10° SSW 19:37:21 54° SE 19:41:35 10° NE
Cosmos 1633 Rocket 4.4 19:34:53 10° SW 19:39:04 41° WNW 19:43:17 10° N
Cosmos 1184 Rocket 4.4 19:36:48 10° SW 19:39:53 36° WNW 19:43:00 10° N
Landsat 7 3.9 19:36:27 14° SSE 19:40:37 81° WSW 19:45:26 10° NNW
SPOT 5 3.0 19:38:25 21° SE 19:41:08 50° ENE 19:45:29 10° N
Cosmos 2208 Rocket 4.0 19:36:35 10° NNW 19:41:53 74° ENE 19:45:27 21° SE
SWARM A 4.4 19:40:44 10° N 19:44:02 55° E 19:45:36 27° SSE
Meteor 1-19 Rocket 4.4 19:44:38 10° NNW 19:50:02 69° W 19:54:58 13° S
CZ-2C R/B 4.4 19:47:30 10° N 19:52:07 33° WNW 19:56:45 10° SW
Okean 1 4.2 19:48:40 10° NNW 19:52:36 49° W 19:56:09 12° SSW
Cosmos 1605 Rocket 4.3 19:47:50 10° SSW 19:53:55 69° WNW 20:00:01 10° N
ERBS 3.2 19:51:57 10° WNW 19:55:09 43° NNE 19:57:19 18° E
USA 267 3.5 19:49:06 10° ENE 19:55:16 42° SE 20:01:24 10° SSW
Cosmos 2100 Rocket 4.0 19:52:15 16° SSE 19:57:09 59° E 20:03:11 10° NNE
Meteor 2-4 Rocket 3.7 19:53:04 10° NNW 19:58:44 90° ENE 20:02:35 20° SSE
NOSS 3-2 (A) 3.8 19:53:06 10° SW 19:59:00 72° NW 20:05:52 10° NE
Cosmos 2219 Rocket 3.0 19:53:39 10° NNW 19:59:02 41° NE 20:02:41 19° ESE
Lacrosse 4 Rocket 2.6 20:01:22 23° ESE 20:01:22 23° ESE 20:04:24 10° ENE
Cosmos 2173 Rocket 4.0 19:56:36 17° SSE 20:01:15 59° E 20:07:15 10° NNE
Cosmos 540 Rocket 3.6 19:56:09 10° NNW 20:01:20 73° WSW 20:04:38 23° SSE
SL-16 R/B 2.9 19:56:49 10° NW 20:02:15 48° WSW 20:06:27 16° S
GENESIS II 4.4 20:00:34 10° NW 20:04:35 66° NE 20:06:20 31° ESE
SL-4 R/B 1.6 20:01:43 10° W 20:05:38 82° S 20:07:24 29° E
BREEZE-M DEB (TANK) 3.0 20:03:02 10° W 20:06:11 65° S 20:15:48 10° E
SL-27 R/B 2.4 20:04:27 11° SSW 20:07:37 75° WNW 20:10:57 10° NNE
NOSS 3-2 (C) 3.5 20:03:41 10° SW 20:09:34 86° NW 20:16:26 10° NE
Cosmos 2322 3.9 20:06:44 10° NNW 20:12:24 64° NE 20:15:30 27° SE
BREEZE-M DEB (TANK) 3.4 20:11:26 10° W 20:12:31 21° SW 20:12:31 21° SW
Cosmos 1725 Rocket 4.5 20:10:38 25° SE 20:13:52 44° E 20:19:49 10° NNE
Cosmos 1459 Rocket 4.0 20:09:17 17° S 20:14:13 72° E 20:20:35 10° NNE
Cosmos 2082 Rocket 4.0 20:09:07 10° WSW 20:14:15 34° NW 20:19:24 10° NNE
Cosmos 2346 Rocket 4.5 20:09:46 10° N 20:15:49 68° ENE 20:19:13 27° SSE
Cosmos 1242 Rocket 3.2 20:12:36 10° N 20:16:05 40° ENE 20:16:53 35° ESE
Meteor 1-13 Rocket 4.1 20:12:20 10° NNW 20:17:54 82° ENE 20:20:56 28° SSE
SAR-Lupe-2 3.5 20:15:07 10° NNE 20:18:42 65° ESE 20:19:45 41° SSE
ERS-1 Rocket 3.1 20:16:15 23° S 20:19:21 69° WSW 20:24:23 10° NNW
Cosmos 2322 Rocket 3.0 20:14:10 10° NW 20:19:33 44° WSW 20:23:14 19° S
Cosmos 2016 Rocket 4.2 20:17:44 25° SSE 20:21:29 59° E 20:27:45 10° NNE
Cosmos 2221 Rocket 3.5 20:21:47 10° N 20:26:18 85° E 20:28:08 36° SSE
Cosmos 1378 Rocket 4.5 20:22:26 10° N 20:26:34 36° ENE 20:27:49 30° ESE
Cosmos 841 Rocket 4.2 20:21:51 10° NW 20:26:51 46° WSW 20:29:56 22° SSW
Cosmos 2333 4.2 20:21:30 10° NNW 20:27:20 79° ENE 20:30:11 32° SE
SPOT 1/Viking Rocket 4.5 20:23:32 16° SSW 20:27:27 43° W 20:32:28 10° NNW
Cosmos 1500 3.3 20:25:35 27° SSW 20:27:32 71° WNW 20:31:18 10° N
Cosmos 1536 3.2 20:27:22 41° ESE 20:27:59 45° E 20:31:48 10° NNE
Cosmos 2360 Rocket 2.4 20:23:16 10° NW 20:28:53 63° WSW 20:31:48 29° S
SL-16 R/B 4.4 20:26:09 10° NNW 20:30:07 19° NNE 20:34:03 10° ENE
Terra 1.8 20:27:56 32° S 20:30:10 81° WSW 20:34:59 10° NNW
Okean 3 3.6 20:26:00 10° NNW 20:30:19 73° W 20:32:07 34° S
USA 276 4.5 20:29:01 10° WSW 20:30:10 14° SW 20:30:10 14° SW
USA 234 3.3 20:29:00 27° SE 20:32:48 72° SSW 20:39:21 10° WNW
ATLAS 3B R/B 2.5 20:28:07 10° SSW 20:34:37 63° SE 20:41:12 10° NE
Cosmos 1666 2.5 20:37:36 55° SSE 20:38:16 71° E 20:42:02 10° NNE
COSMOS 2487 2.8 20:39:02 45° E 20:39:02 45° E 20:41:58 10° NNE
Lacrosse 5 4.0 20:37:17 10° W 20:39:52 14° WSW 20:41:50 12° SSW
Resurs 01 Rocket 4.3 20:38:19 10° WSW 20:40:14 13° W 20:42:10 10° WNW
Iridium 4 Rocket 3.0 20:38:44 35° SSW 20:40:26 79° W 20:44:36 10° N
Cosmos 1378 3.5 20:42:41 10° N 20:46:20 48° ENE 20:46:39 46° E
Cosmos 2297 Rocket 4.3 20:50:24 10° E 20:50:24 10° E 20:50:48 10° E
Cosmos 2233 Rocket 4.2 20:49:34 34° SSE 20:52:02 54° E 20:58:11 10° NNE
Thor Agena Rocket 4.4 20:49:24 10° NNE 20:53:56 31° E 20:54:28 30° ESE
Cosmos 2061 Rocket 3.9 20:50:45 26° S 20:54:26 88° W 21:00:41 10° N
COSMOS 2428 2.7 20:49:47 10° NNW 20:55:34 80° ENE 20:57:48 39° SE
Okean 2 4.4 20:54:07 10° N 20:57:54 33° ENE 20:58:24 32° E
MTI 4.4 20:55:39 10° NNE 20:58:03 44° NE 20:58:03 44° NE
Cosmos 1802 Rocket 4.2 20:54:58 20° SSW 20:59:31 71° WNW 21:05:51 10° N
Cosmos 2237 Rocket 3.0 20:54:38 10° NNW 21:00:02 43° NE 21:02:46 26° ESE
Cosmos 1743 3.4 21:00:17 39° E 21:00:17 39° E 21:03:45 10° NNE
Cosmos 1975 4.5 21:00:29 22° ENE 21:00:29 22° ENE 21:03:15 10° NE
Cosmos 44 Rocket 3.3 20:57:53 10° NW 21:02:53 79° SW 21:04:15 49° SSE
CENTAUR R/B 3.3 20:56:49 10° WSW 21:03:04 58° NNW 21:10:31 10° NE
NOSS 0 Rocket 4.1 20:58:49 10° NNW 21:05:04 65° NE 21:07:51 34° ESE
Cosmos 1271 Rocket 2.5 21:05:23 10° N 21:09:13 77° ENE 21:09:24 75° ESE
FALCON 9 DEB 3.3 21:06:30 10° WNW 21:09:36 67° W 21:09:36 67° W
Cosmos 1674 Rocket 3.6 21:08:45 10° NNW 21:13:05 71° W 21:13:54 55° SSW
Cosmos 2333 Rocket 2.3 21:07:44 10° NW 21:13:29 68° WSW 21:15:19 43° S
ATLAS 5 CENTAUR R/B 2.9 21:11:31 10° WNW 21:14:25 40° SW 21:14:58 39° SSW
Cosmos 1503 Rocket 4.3 21:17:56 46° SE 21:18:38 48° ESE 21:23:47 10° NE
Geosat 4.0 21:18:02 47° SE 21:19:28 78° NE 21:24:32 10° NNW
Cosmos 1486 Rocket 3.9 21:22:06 45° SSW 21:23:45 84° ESE 21:28:59 10° NNE
Meteor 2-11 Rocket 4.5 21:22:23 44° SSE 21:24:15 65° E 21:30:19 10° NNE
BREEZE-M DEB (TANK) 4.2 21:14:48 10° W 21:27:47 49° SSW 21:28:57 44° SSE
DNEPR-1 R/B 4.5 21:22:04 10° NW 21:28:16 61° NE 21:30:25 35° ESE
CRYOSAT 2 4.5 21:23:59 10° N 21:28:53 72° W 21:30:14 47° SSW
Cosmos 1733 Rocket 3.7 21:29:41 38° SW 21:31:00 52° WNW 21:35:23 10° N
ERBS 3.7 21:28:16 10° WNW 21:30:13 31° W 21:30:13 31° W
Cosmos 773 Rocket 4.1 21:31:13 10° NNW 21:36:21 67° ENE 21:37:33 50° ESE
USA 267 3.2 21:32:07 10° ENE 21:38:43 87° NNW 21:45:17 10° WSW
Cosmos 968 Rocket 3.4 21:37:25 48° SSW 21:38:53 86° WNW 21:44:04 10° NNE
Lacrosse 4 Rocket 2.0 21:37:37 30° WSW 21:39:27 54° NW 21:43:33 10° NNE
Cosmos 2227 Rocket 3.6 21:40:11 22° E 21:40:11 22° E 21:44:15 10° NE
ALOS 2 2.6 21:39:37 62° ESE 21:40:02 67° ENE 21:44:25 10° N
Helios 1A 4.2 21:41:31 30° E 21:42:10 31° ENE 21:45:55 10° N
Cosmos 2219 Rocket 2.7 21:37:41 10° NW 21:43:07 47° WSW 21:44:23 40° SSW
SL-4 R/B 3.6 21:41:29 10° W 21:42:58 21° W 21:42:58 21° W
Cosmos 1707 3.8 21:43:02 10° N 21:46:37 35° ENE 21:46:37 35° ENE
EO 1 Del DPAF 3.4 21:49:53 10° NNE 21:53:12 65° NE 21:53:12 65° NE
Cosmos 1538 Rocket 4.2 21:48:54 10° NNW 21:54:04 62° ENE 21:55:15 48° ESE
Cosmos 1782 Rocket 3.5 21:58:07 73° E 21:58:07 73° E 22:02:26 10° NNE
Spot 4 4.3 21:58:19 45° SW 21:58:59 49° W 22:03:42 10° NNW
Cosmos 1607 4.2 21:53:55 10° NW 22:00:23 72° NE 22:03:21 34° ESE
Cosmos 1842 3.5 21:58:15 10° NNW 22:01:52 62° WNW 22:01:52 62° WNW
Cosmos 1908 Rocket 3.8 22:04:49 54° WSW 22:05:17 58° WNW 22:09:36 10° N
Terra 4.2 22:06:49 11° WSW 22:08:42 13° W 22:10:49 10° WNW
Cosmos 2344 4.2 21:59:56 10° NW 22:09:02 87° SW 22:17:17 25° SE
Cosmos 2360 Rocket 4.4 22:09:48 10° WNW 22:11:46 12° W 22:13:33 10° WSW
SL-16 R/B 2.7 22:09:54 10° NNW 22:15:32 56° NE 22:17:41 36° ESE
USA 234 4.3 22:16:20 27° SW 22:16:34 27° SW 22:21:59 10° WNW
Cosmos 1354 Rocket 4.3 22:23:57 43° WSW 22:25:32 64° WNW 22:30:52 10° NNE
ATLAS 3B R/B 3.5 22:19:14 10° WSW 22:25:36 47° NNW 22:32:06 10° NE
Cosmos 1975 Rocket 3.6 22:22:53 10° NNW 22:27:12 47° W 22:27:17 47° W
Cosmos 1300 Rocket 3.8 22:28:47 56° E 22:28:47 56° E 22:32:49 10° NNE
SL-24 DEB 4.3 22:24:28 10° N 22:29:14 69° W 22:29:43 64° WSW
Cosmos 1544 4.4 22:30:40 34° WNW 22:30:40 34° WNW 22:33:56 10° N
Cosmos 2297 Rocket 2.3 22:32:12 54° SE 22:32:47 57° ESE 22:38:21 10° NE
Cosmos 1680 Rocket 4.1 22:28:16 10° NNW 22:33:22 49° ENE 22:35:05 35° ESE
Thor Agena Rocket 4.2 22:28:32 10° N 22:33:26 47° WNW 22:35:03 35° WSW
Nimbus 7 Rocket 4.4 22:29:29 10° NNE 22:35:22 74° WNW 22:37:08 47° SW
In-Cosmos 22 4.1 22:30:16 10° NNW 22:35:51 82° ENE 22:36:51 61° SSE
Cosmos 1975 3.7 22:36:14 41° WNW 22:36:19 41° WNW 22:40:12 10° N
Cosmos 1980 4.0 22:30:59 10° NW 22:36:25 47° WSW 22:36:58 46° SW
Meteor 2-9 Rocket 4.4 22:35:06 47° SW 22:36:36 66° WNW 22:42:24 10° N
COSMOS 2428 4.2 22:34:58 10° NW 22:39:13 22° WSW 22:39:48 21° WSW
Cosmos 1777 Rocket 3.9 22:39:10 67° SSE 22:39:48 77° ESE 22:45:07 10° NNE
Timation 2 Rocket 3.8 22:39:51 49° SW 22:41:40 86° WNW 22:47:43 10° NNE
Cosmos 1025 Rocket 3.0 22:38:25 10° NNW 22:42:31 77° WNW 22:42:31 77° WNW
Cosmos 1634 Rocket 4.5 22:41:33 39° SE 22:43:11 48° E 22:49:06 10° NNE
Cosmos 2237 Rocket 2.6 22:38:49 10° NW 22:44:09 44° WSW 22:44:34 43° WSW
SJ 16-02 2.7 22:47:38 29° E 22:47:38 29° E 22:51:06 10° NE
Cosmos 2219 3.1 22:46:31 61° S 22:47:30 81° ESE 22:53:09 10° NNE
Meteor 2-13 Rocket 4.4 22:41:57 10° N 22:48:07 81° E 22:49:46 51° SSE
Cosmos 1464 Rocket 4.2 22:46:11 43° SW 22:48:07 62° WNW 22:54:15 10° N
Okean 1 Rocket 4.0 22:50:07 36° E 22:50:09 36° E 22:54:11 10° NNE
Nadezhda 4 Rocket 4.2 22:47:16 10° NNW 22:53:27 60° W 22:54:56 47° SW
Okean 2 Rocket 3.0 22:53:44 78° WSW 22:53:52 79° WNW 22:58:24 10° N
CENTAUR R/B 4.4 22:48:57 10° WNW 22:55:14 36° N 23:02:30 10° ENE
Cosmos 2333 Rocket 4.3 22:54:07 10° WNW 22:56:40 13° W 22:57:19 13° WSW
Cosmos 1674 3.1 22:53:48 10° N 22:57:04 58° NE 22:57:04 58° NE
CZ-2D R/B 4.1 22:59:17 10° NE 23:03:07 19° E 23:05:05 16° ESE
Cosmos 923 Rocket 3.9 23:01:36 10° NNW 23:06:57 79° WSW 23:07:42 65° S
Cosmos 1943 4.2 23:08:20 10° NNW 23:13:42 43° NE 23:18:27 13° ESE
Cosmos 1092 Rocket 4.0 23:09:05 10° NNW 23:15:14 64° W 23:16:44 49° SSW
NOSS 3-1 (C) 3.9 23:16:43 38° SE 23:17:22 40° ESE 23:23:15 10° NE
Helios 1A 4.1 23:18:09 33° W 23:18:09 33° W 23:21:35 10° NNW
Cosmos 1626 2.9 23:15:03 10° N 23:18:35 46° ENE 23:18:35 46° ENE
Lacrosse 4 Rocket 4.2 23:16:27 10° WNW 23:19:01 15° NNW 23:21:32 10° N
USA 267 3.7 23:15:08 10° ENE 23:21:33 60° N 23:27:58 10° W
Cosmos 2034 Rocket 4.5 23:19:26 37° WSW 23:21:34 51° WNW 23:27:46 10° N
Cosmos 1707 4.5 23:19:12 10° NW 23:21:46 23° WNW 23:21:46 23° WNW
Cosmos 2227 Rocket 2.2 23:21:59 51° SW 23:23:28 78° WNW 23:29:11 10° NNE
Cosmos 1733 3.9 23:24:08 45° E 23:24:08 45° E 23:27:38 10° NNE
Cosmos 1461 3.1 23:24:34 64° ESE 23:24:34 64° ESE 23:29:02 10° NE
MOZ.5/SAFIR/RUBIN 5/SL-8 4.4 23:23:32 37° ESE 23:24:59 52° ENE 23:29:34 10° N
Cosmos 1766 3.6 23:26:28 56° ENE 23:26:28 56° ENE 23:30:02 10° NNE
Cosmos 1892 Rocket 4.1 23:22:37 10° N 23:27:00 52° ENE 23:27:50 45° ESE
Cosmos 2151 Rocket 3.9 23:26:48 52° W 23:27:03 53° WNW 23:31:23 10° N
Cosmos 1536 Rocket 4.5 23:25:57 10° NNW 23:29:39 35° W 23:29:39 35° W
Resurs 1-4 Rocket 3.4 23:29:08 10° NNE 23:33:47 30° E 23:35:32 25° SE
Meteor 2-5 Rocket 3.6 23:29:55 10° NNW 23:35:33 82° W 23:36:52 54° S
Landsat 4 4.1 23:32:18 10° N 23:35:51 56° NW 23:35:51 56° NW
Meteor 1-22 Rocket 4.5 23:34:56 42° SE 23:36:17 53° E 23:41:33 10° NNE
Cosmos 1470 4.2 23:39:13 27° ESE 23:39:44 28° E 23:43:12 10° NNE
Cosmos 1805 3.2 23:45:52 73° WNW 23:45:52 73° WNW 23:49:38 10° N
Cosmos 158 Rocket 4.3 23:40:53 10° NNW 23:46:06 51° WSW 23:46:39 49° SW
Spot 1 3.8 23:49:42 69° SE 23:50:07 80° ENE 23:54:13 10° NNW
Cosmos 2082 3.6 23:48:47 49° SW 23:50:22 82° WNW 23:56:02 10° NNE
Cosmos 1937 Rocket 4.0 23:49:29 41° SSE 23:50:47 50° ESE 23:55:55 10° NNE
Cosmos 990 Rocket 4.0 23:50:28 54° S 23:51:33 71° ESE 23:56:43 10° NNE
DELTA 2 DEB (DPAF) 4.1 23:52:22 54° SE 23:53:19 78° ENE 23:57:47 10° NNW
Helios 1B rocket 2.5 23:49:58 10° N 23:54:03 63° WNW 23:54:18 61° W
PSLV R/B 4.3 23:49:35 10° N 23:54:07 47° WNW 23:55:06 41° WSW
